Temp
12 10 10 11 11 10 9 8 8 7 6 6 5 6 5 5 5 5 5 5 4 3 3 2 2 2 1 1 0 -0 -2 -4 -4 -4 -4 -3 -3 -2
9 10 9 9 9 8 8 7 6 6 5 5 4 5 4 5 4 4 4 4 3 3 3 2 2 1 1 -0 -1 -3 -3 -2 -2 -4 -4 -4 -3 -3
8 8 7 7 6 6 6 5 5 5 4 4 4 3 3 4 4 4 4 4 3 3 2 2 -0 0 -0 -2 -3 -3 -2 -2 -2 -3 -5 -4 -4 -4
8 7 6 5 4 5 4 4 5 4 3 2 3 3 3 3 4 4 3 3 2 2 1 1 -0 -0 -2 -2 -2 -2 -2 -2 -2 -3 -3 -5 -5 -5
7 6 5 4 5 5 4 4 4 3 3 4 3 2 3 2 3 3 2 2 2 2 1 1 -0 -1 -2 -2 -2 -1 -1 -2 -3 -4 -4 -5 -5 -5
7 6 6 4 4 4 4 4 3 3 4 3 2 1 1 2 2 2 2 1 2 2 1 1 -1 -1 -2 -2 -1 -2 -3 -3 -4 -5 -5 -6 -6 -5
6 5 4 3 3 4 4 3 3 5 3 2 1 0 1 1 1 -0 0 1 1 0 0 0 -5 -5 -3 -1 -2 -3 -4 -5 -6 -7 -6 -4 -4 -4
6 3 2 3 3 3 3 3 4 3 2 1 0 0 0 -0 -0 0 -1 -3 -3 -1 -0 1 -3 -5 -3 -3 -3 -4 -5 -5 -6 -6 -5 -4 -4 -3
4 3 2 2 3 3 2 3 3 2 1 1 0 0 -0 -0 -0 -0 -2 -2 -3 -2 -4 -2 -5 -4 -2 -2 -3 -4 -5 -5 -5 -5 -4 -4 -4 -2
3 2 2 3 3 2 2 3 2 2 1 1 -0 -1 -1 -0 -1 -2 -3 -2 -1 -2 -5 -7 -6 -5 -1 -2 -3 -4 -4 -5 -5 -4 -4 -4 -3 -2
2 2 2 2 1 0 3 2 1 0 0 0 -0 -1 -1 -2 -2 -3 -3 -3 -2 -3 -5 -8 -7 -7 -2 -2 -3 -4 -5 -5 -5 -4 -4 -4 -2 -1
1 1 1 1 -0 1 1 1 0 0 -0 -1 -1 -1 -2 -3 -3 -3 -3 -3 -5 -6 -7 -8 -8 -8 -7 -4 -3 -5 -5 -5 -5 -5 -4 -2 -0 1
1 0 -0 -1 1 0 0 0 -0 -0 -1 -1 -1 -2 -3 -3 -3 -3 -3 -4 -4 -6 -7 -8 -8 -8 -9 -8 -5 -6 -6 -6 -5 -4 -3 -1 0 2
1 -0 -2 -1 0 0 -0 -0 -0 -1 -1 -1 -2 -2 -2 -2 -2 -3 -3 -4 -5 -6 -6 -7 -7 -7 -8 -9 -9 -6 -5 -6 -5 -4 -3 -1 0 -0
-0 -1 -1 0 -0 -0 -0 -0 -1 -1 -2 -2 -2 -2 -2 -2 -2 -3 -3 -3 -4 -4 -6 -6 -5 -5 -7 -10 -9 -9 -7 -6 -6 -5 -4 -3 -2 -0
-2 -2 -0 -0 -1 -1 -1 -1 -1 -2 -2 -2 -2 -2 -2 -2 -2 -3 -3 -3 -3 -4 -6 -6 -4 -5 -7 -9 -8 -8 -8 -8 -6 -6 -5 -3 -3 -3
-3 -2 -1 -2 -2 -2 -2 -2 -2 -2 -2 -3 -3 -2 -3 -3 -3 -3 -4 -3 -4 -5 -6 -5 -4 -5 -8 -10 -9 -8 -8 -7 -7 -6 -5 -3 -3 -3
-4 -1 -2 -2 -2 -2 -2 -2 -2 -2 -2 -3 -3 -2 -3 -3 -3 -4 -4 -4 -5 -7 -7 -6 -4 -4 -8 -9 -9 -8 -8 -7 -8 -7 -4 -2 -4 -5
-2 -1 -2 -2 -2 -2 -3 -3 -3 -3 -3 -3 -3 -3 -4 -3 -4 -4 -4 -5 -6 -7 -7 -6 -5 -5 -8 -9 -9 -8 -8 -8 -8 -7 -6 -3 -5 -6
-2 -1 -2 -2 -2 -2 -3 -3 -3 -3 -3 -4 -4 -4 -4 -3 -4 -5 -5 -5 -6 -7 -7 -7 -6 -6 -8 -9 -9 -9 -7 -7 -7 -8 -7 -4 -4 -3
-2 -2 -2 -2 -3 -3 -3 -3 -4 -4 -4 -5 -5 -5 -4 -4 -4 -5 -5 -6 -7 -6 -6 -6 -6 -6 -7 -7 -9 -8 -7 -7 -7 -7 -6 -4 -3 -3
-2 -4 -3 -3 -3 -3 -3 -4 -4 -4 -5 -5 -5 -6 -5 -5 -5 -5 -5 -7 -7 -7 -6 -7 -6 -6 -6 -6 -7 -7 -6 -6 -6 -5 -5 -4 -4 -6
-4 -4 -3 -3 -4 -4 -4 -4 -4 -5 -5 -5 -6 -6 -6 -6 -6 -6 -6 -6 -7 -7 -7 -7 -7 -6 -6 -6 -7 -6 -6 -5 -5 -4 -4 -4 -4 -5
Height
1481 1487 1492 1494 1496 1498 1500 1502 1503 1505 1508 1512 1511 1509 1506 1502 1498 1494 1490 1484 1479 1475 1470 1464 1459 1455 1449 1444 1438 1432 1428 1423 1421 1418 1414 1413 1411 1410
1476 1481 1486 1489 1490 1492 1494 1495 1499 1500 1501 1506 1506 1505 1504 1498 1494 1489 1484 1480 1475 1470 1465 1460 1454 1448 1442 1436 1430 1424 1419 1415 1411 1409 1405 1404 1403 1403
1468 1473 1480 1486 1490 1491 1492 1494 1490 1495 1497 1499 1500 1499 1497 1493 1489 1484 1479 1475 1470 1465 1460 1454 1448 1443 1436 1429 1423 1418 1412 1408 1405 1403 1398 1396 1396 1394
1462 1465 1472 1473 1480 1489 1489 1492 1487 1491 1493 1491 1495 1494 1491 1487 1483 1478 1474 1469 1464 1459 1454 1448 1443 1437 1429 1424 1417 1411 1406 1401 1397 1394 1390 1388 1387 1386
1455 1459 1463 1468 1472 1477 1483 1483 1486 1488 1487 1487 1489 1488 1485 1482 1477 1472 1469 1464 1460 1455 1450 1444 1437 1431 1426 1419 1411 1404 1399 1395 1392 1388 1383 1380 1378 1376
1450 1453 1457 1463 1468 1472 1476 1478 1481 1481 1484 1481 1484 1483 1480 1477 1472 1468 1464 1460 1457 1453 1445 1439 1431 1425 1419 1413 1406 1399 1394 1390 1385 1381 1375 1372 1369 1366
1443 1447 1451 1458 1465 1468 1470 1472 1475 1477 1477 1477 1479 1479 1475 1472 1467 1464 1460 1457 1453 1449 1440 1435 1427 1422 1416 1407 1400 1395 1388 1383 1378 1374 1366 1361 1358 1356
1435 1444 1450 1455 1459 1463 1465 1468 1472 1472 1473 1474 1475 1473 1471 1468 1464 1461 1458 1453 1449 1447 1437 1432 1426 1419 1412 1403 1397 1390 1382 1376 1368 1363 1357 1352 1349 1347
1429 1435 1442 1452 1455 1458 1462 1464 1466 1468 1470 1470 1471 1470 1468 1464 1461 1459 1456 1452 1448 1442 1435 1427 1423 1415 1408 1399 1393 1384 1377 1369 1360 1355 1348 1343 1341 1339
1425 1433 1440 1446 1450 1453 1458 1461 1462 1465 1466 1465 1468 1468 1465 1461 1460 1457 1454 1449 1446 1441 1434 1425 1418 1410 1400 1395 1387 1379 1371 1361 1355 1347 1340 1334 1331 1331
1422 1428 1435 1441 1445 1449 1453 1456 1459 1462 1463 1464 1464 1464 1463 1460 1458 1456 1451 1445 1441 1437 1432 1425 1415 1402 1392 1387 1382 1375 1365 1356 1349 1339 1331 1326 1322 1322
1418 1425 1433 1437 1443 1447 1450 1453 1456 1459 1461 1462 1462 1461 1461 1459 1455 1454 1450 1445 1441 1435 1434 1426 1416 1405 1387 1382 1379 1371 1360 1351 1342 1333 1325 1319 1316 1317
1414 1420 1426 1435 1441 1444 1448 1451 1455 1457 1459 1461 1461 1460 1460 1458 1455 1453 1449 1445 1442 1438 1433 1426 1417 1408 1400 1387 1376 1370 1361 1350 1339 1330 1321 1317 1313 1314
1409 1418 1426 1433 1438 1442 1446 1448 1451 1455 1456 1459 1459 1459 1460 1456 1454 1451 1447 1445 1442 1437 1431 1426 1417 1408 1399 1390 1380 1368 1363 1354 1343 1333 1324 1319 1315 1313
1409 1417 1425 1430 1436 1439 1442 1444 1449 1452 1454 1456 1457 1458 1456 1454 1451 1450 1446 1445 1441 1437 1432 1425 1418 1409 1402 1397 1386 1376 1363 1356 1347 1338 1330 1324 1318 1317
1409 1415 1421 1427 1433 1437 1440 1441 1444 1448 1452 1455 1455 1455 1454 1453 1450 1448 1445 1442 1439 1435 1431 1424 1418 1409 1404 1399 1390 1382 1375 1367 1355 1347 1337 1330 1326 1322
1407 1414 1419 1423 1429 1433 1438 1441 1443 1444 1448 1453 1454 1452 1452 1451 1449 1447 1445 1442 1438 1433 1430 1424 1419 1410 1407 1401 1394 1387 1380 1374 1366 1358 1350 1343 1339 1337
1405 1413 1417 1422 1426 1431 1435 1439 1440 1443 1445 1450 1451 1451 1450 1448 1448 1447 1445 1442 1439 1435 1432 1425 1419 1412 1412 1410 1401 1395 1387 1380 1377 1369 1360 1355 1357 1358
1405 1411 1417 1421 1426 1431 1433 1436 1440 1442 1443 1447 1449 1449 1448 1446 1447 1446 1444 1442 1440 1438 1434 1429 1423 1417 1414 1411 1409 1404 1397 1390 1387 1380 1374 1370 1373 1378
1406 1412 1417 1421 1425 1428 1431 1434 1438 1441 1443 1445 1447 1447 1446 1445 1445 1445 1444 1443 1441 1438 1436 1432 1428 1425 1424 1421 1416 1413 1409 1401 1395 1395 1391 1388 1390 1397
1406 1411 1417 1421 1424 1427 1429 1432 1436 1439 1442 1445 1445 1447 1445 1443 1443 1444 1443 1443 1442 1439 1437 1435 1432 1430 1430 1429 1427 1425 1420 1416 1411 1405 1406 1403 1403 1409
1407 1413 1417 1420 1423 1425 1428 1431 1432 1436 1441 1442 1443 1444 1443 1441 1442 1443 1442 1443 1442 1440 1438 1437 1436 1435 1435 1432 1429 1433 1432 1428 1423 1419 1416 1416 1418 1420
1408 1414 1416 1418 1421 1424 1426 1428 1430 1433 1436 1438 1441 1441 1441 1439 1439 1441 1441 1442 1442 1439 1439 1439 1438 1439 1437 1438 1437 1431 1439 1437 1435 1430 1429 1432 1433 1434
Wind_Speed
42 34 34 33 29 24 19 15 13 8 4 7 9 17 23 25 27 28 28 28 28 27 27 28 30 30 32 34 33 31 31 30 30 33 31 31 30 29
32 33 33 29 25 21 17 14 8 5 5 7 14 20 23 24 26 27 27 27 24 24 26 26 28 27 29 29 28 28 30 31 30 30 29 28 28 28
36 34 28 21 17 15 13 10 6 3 4 9 13 18 21 22 23 25 26 25 23 26 26 24 26 27 27 26 27 29 31 32 32 31 29 27 27 27
40 36 29 24 18 15 11 10 4 6 9 8 17 18 19 20 22 24 24 25 25 29 26 25 25 26 25 27 29 31 32 32 31 31 31 29 29 28
41 38 32 24 25 25 21 9 10 11 8 11 16 17 18 19 21 23 24 25 28 30 28 27 27 25 26 28 30 32 31 29 26 26 28 29 29 29
40 35 31 33 27 23 14 11 12 7 13 11 14 15 15 18 20 23 26 27 29 30 30 30 30 30 30 30 27 24 23 28 32 32 30 31 33 33
38 34 32 28 23 17 13 9 8 14 11 10 12 13 13 17 19 22 26 28 31 31 34 30 28 29 30 29 21 28 27 28 31 33 35 34 33 30
42 34 30 26 21 12 7 10 14 11 9 8 9 11 11 15 18 22 26 27 31 30 34 29 29 32 33 27 26 28 28 33 32 32 32 30 28 24
42 37 32 25 16 14 14 17 13 10 8 7 7 9 12 15 18 21 24 27 28 32 28 36 30 39 40 22 31 32 33 35 30 30 29 27 27 20
38 31 29 25 18 14 19 16 10 8 6 4 6 8 10 13 16 19 23 27 29 30 22 29 33 41 40 26 37 33 34 32 30 29 27 24 23 19
34 31 30 23 20 21 19 12 9 6 5 4 5 7 9 12 15 19 22 26 31 33 20 32 32 43 40 34 44 37 39 32 33 29 26 25 22 18
36 33 25 24 22 20 14 10 8 5 4 4 4 6 8 9 12 17 21 24 26 26 19 32 30 35 23 36 47 43 42 34 34 28 23 20 15 9
38 32 31 27 23 15 12 10 8 5 4 3 3 3 5 7 9 13 17 20 22 23 24 25 29 31 24 39 49 44 43 37 35 29 18 7 3 3
36 33 30 25 18 14 12 10 8 6 4 1 1 3 4 5 8 12 14 15 16 19 22 22 28 30 31 35 35 46 43 34 30 27 22 12 7 3
36 33 28 22 18 15 13 10 8 6 3 1 1 3 6 8 10 11 13 14 14 15 19 23 27 29 26 25 32 36 40 32 28 24 19 15 11 4
35 32 28 22 18 15 13 11 10 7 4 1 1 3 6 8 10 13 15 17 20 20 19 23 27 25 24 28 32 32 30 25 25 24 25 19 25 33
36 32 27 25 22 18 14 11 10 8 5 1 2 4 6 7 10 12 14 17 20 21 23 25 27 23 20 33 34 28 27 25 25 26 31 30 32 34
36 30 27 24 21 17 15 12 10 7 5 1 1 3 5 8 9 10 12 15 18 17 20 25 28 26 21 18 33 29 24 26 27 31 36 36 41 41
31 29 27 24 20 17 14 12 9 7 4 2 1 3 4 7 8 10 11 14 16 14 17 21 25 26 22 22 28 29 24 27 31 35 39 40 47 47
29 26 23 21 19 16 14 10 9 6 4 3 1 2 4 6 7 9 11 13 13 12 15 18 22 24 19 20 24 29 20 23 33 32 43 47 48 47
27 23 20 18 16 14 12 10 8 6 6 5 3 3 3 6 7 7 9 9 11 11 14 16 19 19 18 16 19 24 22 19 25 34 36 45 46 44
24 21 19 16 14 12 10 9 8 8 9 8 7 6 3 3 6 6 6 6 8 9 11 12 13 15 14 15 21 19 20 17 20 32 36 39 38 41
20 17 16 14 12 10 9 8 8 10 11 11 11 9 6 3 3 5 5 4 4 6 7 9 9 11 12 13 13 20 17 18 17 24 27 30 40 42
Wind_Direction
230 231 237 233 230 226 223 219 204 180 242 278 303 303 310 312 314 317 320 323 323 321 317 317 313 310 307 304 306 303 303 299 295 292 294 292 291 289
230 230 226 222 216 212 207 197 205 199 170 289 302 302 307 310 314 320 324 324 326 323 320 321 314 316 312 311 312 312 313 310 301 295 292 293 290 285
215 212 209 210 210 201 197 207 192 231 273 289 292 297 302 308 317 324 325 329 335 331 330 328 327 321 317 318 315 312 309 309 305 299 295 293 290 287
211 206 202 195 205 207 212 213 240 277 270 298 285 296 304 314 324 327 333 340 343 335 337 334 330 331 328 323 315 310 307 303 299 296 293 290 285 285
213 207 204 205 206 222 222 239 271 279 297 275 286 296 311 323 327 333 342 345 347 335 336 340 339 340 336 325 317 313 310 307 306 303 296 291 285 282
212 212 220 215 224 207 231 251 268 276 256 276 285 299 317 323 334 341 345 344 346 338 339 344 344 346 341 333 322 319 321 315 311 307 299 293 289 287
209 212 212 210 209 208 224 238 232 235 255 271 283 302 321 329 343 343 343 343 343 346 339 347 338 339 341 337 335 328 322 320 317 307 297 290 288 289
207 202 196 198 197 213 249 205 222 240 253 265 284 304 325 333 341 346 344 341 343 348 335 347 342 338 345 340 340 336 333 328 322 312 308 297 288 285
204 199 193 195 195 221 203 214 229 240 247 266 289 312 331 340 343 343 344 342 337 343 339 337 343 341 349 352 348 343 340 332 323 318 310 303 294 283
204 201 199 196 216 211 196 215 221 233 251 274 303 317 329 338 340 344 341 339 340 347 337 328 342 338 349 355 358 349 339 334 330 324 313 308 293 271
198 195 194 207 193 184 201 202 207 227 254 280 301 311 337 339 340 341 342 345 343 347 338 335 336 339 348 355 356 352 349 343 339 333 322 309 289 270
189 189 195 184 177 191 190 190 196 204 234 270 298 315 326 331 342 342 343 345 344 342 333 330 335 348 335 343 352 354 353 352 347 344 329 315 285 271
185 182 178 171 182 183 180 181 185 190 204 237 270 298 315 335 342 345 347 346 340 329 335 336 338 342 337 333 346 355 359 355 356 359 2 355 328 181
184 177 166 170 177 177 177 176 177 185 185 219 312 305 312 347 357 355 355 353 340 334 340 344 342 342 345 341 340 354 1 3 2 7 13 16 9 80
173 162 163 170 173 172 172 165 170 173 171 162 307 339 350 360 3 359 356 357 357 358 360 357 354 352 359 350 348 356 357 5 14 20 29 45 54 80
160 162 169 170 169 167 162 163 166 162 165 203 347 6 5 3 1 359 360 360 5 12 21 4 6 3 6 11 10 2 10 5 23 45 59 71 94 105
162 169 168 165 165 160 160 164 157 155 152 207 349 16 18 16 9 2 360 2 8 6 11 15 21 16 22 25 16 16 15 30 42 60 77 85 89 101
167 175 168 166 161 161 164 162 154 150 148 169 5 21 21 22 17 6 6 7 10 10 15 17 26 25 26 25 26 22 33 45 51 76 92 96 97 106
179 172 168 163 162 166 163 159 154 156 152 167 13 24 22 23 17 6 10 11 15 15 22 23 33 28 28 31 29 27 38 61 60 81 100 107 109 110
177 169 167 165 169 169 169 166 178 179 181 205 275 353 12 15 16 9 10 11 16 25 27 32 42 35 34 45 43 34 40 73 82 76 94 106 113 122
170 166 173 173 172 174 173 184 195 206 220 239 271 311 6 13 5 10 9 9 17 32 33 40 45 45 39 57 62 52 53 72 89 98 107 112 114 117
164 175 178 176 179 178 185 199 211 227 235 244 256 268 303 3 6 1 7 9 18 36 35 45 49 55 47 60 73 65 62 70 93 108 110 113 116 118
170 183 183 184 188 196 205 212 229 239 240 242 247 252 262 284 324 343 351 349 22 35 43 47 60 64 59 58 75 87 79 83 94 109 103 119 121 122